CW9703 Weather Reports


Display with metric or nautical units.
time (UTC)temp
F
wind
direction
speed
MPH
gust
MPH
rain 1hr
in
rain 24hr
in
rain mn
in
humidity
%
barometer
mb
20210417053902 42 302 0.0 0.0 0.00 0.00 0.00 84 1014.8
20210417041107 42 297 0.0 0.0 0.00 0.00 0.00 82 1014.7
20210417034932 42 297 0.0 3.0 0.00 0.00 0.00 83 1014.8
20210417032739 42 296 0.0 0.0 0.00 0.01 0.00 82 1014.8
20210417022357 42 294 3.0 4.0 0.00 0.02 0.00 82 1014.9
20210417015921 42 272 2.0 5.0 0.00 0.02 0.00 82 1014.7
20210417012931 43 263 3.0 6.0 0.00 0.02 0.00 85 1014.6
20210417011459 43 240 4.0 6.0 0.00 0.02 0.00 85 1014.6
20210417005757 43 254 4.0 6.0 0.00 0.02 0.00 84 1014.4
20210417003122 44 263 7.0 9.0 0.00 0.02 0.00 86 1014.1
20210417002119 44 271 7.0 10.0 0.00 0.02 0.00 85 1013.8
20210416235953 46 79 2.0 2.0 0.00 0.02 0.00 77 1013.7
20210416230307 46 61 1.0 5.0 0.00 0.02 0.00 75 1013.2
20210416222107 45 114 1.0 6.0 0.00 0.03 0.00 78 1012.9
20210416220811 45 98 5.0 10.0 0.00 0.03 0.00 79 1012.7
20210416215950 45 104 7.0 10.0 0.00 0.03 0.00 79 1012.6
20210416213501 46 94 5.0 8.0 0.00 0.03 0.00 78 1012.5
20210416212743 46 135 3.0 6.0 0.00 0.03 0.00 77 1012.4
20210416211254 46 78 3.0 8.0 0.00 0.03 0.00 76 1012.3
20210416202920 45 123 3.0 6.0 0.00 0.03 0.00 80 1012.0
20210416200650 43 130 9.0 11.0 0.00 0.03 0.00 86 1012.0
20210416194526 42 143 12.0 14.0 0.00 0.03 0.00 87 1012.2
20210416193037 43 138 12.0 14.0 0.00 0.03 0.00 85 1012.1
20210416183848 44 134 11.0 14.0 0.00 0.03 0.00 81 1012.1
20210416181801 51 175 3.0 7.0 0.00 0.03 0.00 67 1012.0
20210416175721 51 350 1.0 3.0 0.00 0.03 0.00 66 1012.1
20210416173248 50 343 3.0 4.0 0.00 0.03 0.00 66 1012.4
20210416171056 49 19 1.0 3.0 0.00 0.03 0.00 69 1012.4
20210416164948 46 351 3.0 9.0 0.00 0.03 0.00 71 1012.7
20210416161555 46 333 7.0 10.0 0.00 0.03 0.00 70 1012.7
20210416153149 44 343 4.0 7.0 0.00 0.03 0.00 76 1012.7
20210416150953 43 342 7.0 10.0 0.00 0.03 0.00 78 1012.7
20210416144915 42 338 7.0 8.0 0.00 0.03 0.00 77 1013.0
20210416142852 41 347 3.0 9.0 0.00 0.05 0.00 78 1013.0
20210416140346 42 329 4.0 10.0 0.00 0.05 0.00 79 1013.1
20210416134227 40 335 5.0 9.0 0.00 0.05 0.00 81 1013.0
20210416132214 39 345 2.0 10.0 0.00 0.05 0.00 83 1013.0
20210416123552 38 346 4.0 8.0 0.00 0.05 0.00 84 1012.6
20210416120243 38 344 5.0 12.0 0.00 0.05 0.00 86 1012.4
20210416114042 38 343 4.0 5.0 0.00 0.06 0.00 87 1012.8
20210416111954 38 333 3.0 5.0 0.00 0.06 0.00 87 1012.8
20210416104556 38 324 3.0 4.0 0.00 0.07 0.00 86 1012.8
20210416100147 38 344 4.0 7.0 0.00 0.08 0.00 86 1013.1
20210416093943 38 328 5.0 7.0 0.00 0.08 0.00 86 1013.1
20210416084440 37 332 2.0 4.0 0.00 0.08 0.00 87 1013.2
20210416082633 37 317 2.0 5.0 0.00 0.08 0.00 87 1013.1
20210416071649 37 306 8.0 9.0 0.00 0.08 0.00 88 1013.2
20210416070546 37 351 3.0 7.0 0.00 0.08 0.00 88 1013.4
20210416062458 37 337 4.0 7.0 0.00 0.08 0.00 89 1013.3